Time,TemperatureF,DewpointF,PressureIn,WindDirection,WindDirectionDegrees,WindSpeedMPH,WindSpeedGustMPH,Humidity,HourlyPrecipIn,Conditions,Clouds,dailyrainin,SoftwareType,DateUTC
2013-02-09 00:00:00,26.3,-99.9,29.89,NW,325,0.0,4.0,-999,0.00,,---,0.00,VWS V14.01,2013-02-09 08:00:00,
2013-02-09 00:01:00,28.4,-99.9,29.89,WNW,303,2.0,6.0,-999,0.00,,---,0.00,VWS V14.01,2013-02-09 08:01:00,
2013-02-09 00:06:00,27.4,-99.9,29.89,East,79,0.0,5.0,-999,0.00,,---,0.00,VWS V14.01,2013-02-09 08:06:00,
2013-02-09 00:11:00,27.1,-99.9,29.89,East,79,2.0,5.0,-999,0.00,,---,0.00,VWS V14.01,2013-02-09 08:11:00,
2013-02-09 00:16:00,27.1,-99.9,29.89,East,79,0.0,5.0,-999,0.00,,---,0.00,VWS V14.01,2013-02-09 08:16:00,
2013-02-09 00:21:00,26.6,-99.9,29.89,East,79,0.0,5.0,-999,0.00,,---,0.00,VWS V14.01,2013-02-09 08:21:00,
2013-02-09 00:26:00,26.1,-99.9,29.89,SSW,209,1.0,5.0,-999,0.00,,---,0.00,VWS V14.01,2013-02-09 08:26:00,
2013-02-09 00:30:00,28.9,-99.9,29.89,NW,320,0.0,6.0,-999,0.00,,---,0.00,VWS V14.01,2013-02-09 08:30:00,
2013-02-09 00:31:00,26.3,-99.9,29.89,SSW,210,1.0,5.0,-999,0.00,,---,0.00,VWS V14.01,2013-02-09 08:31:00,
2013-02-09 00:36:00,26.6,-99.9,29.89,WNW,288,0.0,4.0,-999,0.00,,---,0.00,VWS V14.01,2013-02-09 08:36:00,
2013-02-09 00:41:00,26.7,-99.9,29.89,NW,322,3.0,4.0,-999,0.00,,---,0.00,VWS V14.01,2013-02-09 08:41:00,
2013-02-09 00:46:00,26.3,-99.9,29.89,NW,325,0.0,4.0,-999,0.00,,---,0.00,VWS V14.01,2013-02-09 08:46:00,
2013-02-09 00:51:00,26.6,-99.9,29.89,NW,325,0.0,4.0,-999,0.00,,---,0.00,VWS V14.01,2013-02-09 08:51:00,
2013-02-09 00:56:00,25.9,-99.9,29.89,NW,325,3.0,4.0,-999,0.00,,---,0.00,VWS V14.01,2013-02-09 08:56:00,
2013-02-09 01:00:00,28.3,-99.9,29.88,WNW,293,1.0,6.0,-999,0.00,,---,0.00,VWS V14.01,2013-02-09 09:00:00,
2013-02-09 01:01:00,26.2,-99.9,29.89,NW,325,0.0,4.0,-999,0.00,,---,0.00,VWS V14.01,2013-02-09 09:01:00,
2013-02-09 01:06:00,25.6,-99.9,29.89,NW,325,0.0,0.0,-999,0.00,,---,0.00,VWS V14.01,2013-02-09 09:06:00,
2013-02-09 01:11:00,26.0,-99.9,29.89,NW,325,2.0,2.0,-999,0.00,,---,0.00,VWS V14.01,2013-02-09 09:11:00,
2013-02-09 01:16:00,26.1,-99.9,29.89,NW,325,2.0,3.0,-999,0.00,,---,0.00,VWS V14.01,2013-02-09 09:16:00,
2013-02-09 01:21:00,26.0,-99.9,29.89,NW,325,0.0,3.0,-999,0.00,,---,0.00,VWS V14.01,2013-02-09 09:21:00,
2013-02-09 01:26:00,27.4,-99.9,29.89,NW,322,3.0,6.0,-999,0.00,,---,0.00,VWS V14.01,2013-02-09 09:26:00,
2013-02-09 01:30:00,30.3,-99.9,29.89,West,278,2.0,8.0,-999,0.00,,---,0.00,VWS V14.01,2013-02-09 09:30:00,
2013-02-09 01:31:00,28.9,-99.9,29.89,NW,320,0.0,6.0,-999,0.00,,---,0.00,VWS V14.01,2013-02-09 09:31:00,
2013-02-09 01:36:00,28.6,-99.9,29.89,NW,308,3.0,6.0,-999,0.00,,---,0.00,VWS V14.01,2013-02-09 09:36:00,
2013-02-09 01:41:00,29.8,-99.9,29.88,North,0,0.0,6.0,-999,0.00,,---,0.00,VWS V14.01,2013-02-09 09:41:00,
2013-02-09 01:46:00,28.0,-99.9,29.89,NW,323,1.0,6.0,-999,0.00,,---,0.00,VWS V14.01,2013-02-09 09:46:00,
2013-02-09 01:51:00,28.3,-99.9,29.88,NNW,334,0.0,6.0,-999,0.00,,---,0.00,VWS V14.01,2013-02-09 09:51:00,
2013-02-09 01:56:00,29.0,-99.9,29.88,WNW,293,1.0,6.0,-999,0.00,,---,0.00,VWS V14.01,2013-02-09 09:56:00,
2013-02-09 02:00:00,27.3,-99.9,29.89,North,0,0.0,5.0,-999,0.00,,---,0.00,VWS V14.01,2013-02-09 10:00:00,
2013-02-09 02:01:00,28.3,-99.9,29.89,WNW,293,0.0,6.0,-999,0.00,,---,0.00,VWS V14.01,2013-02-09 10:01:00,
2013-02-09 02:06:00,29.2,-99.9,29.89,North,350,0.0,5.0,-999,0.00,,---,0.00,VWS V14.01,2013-02-09 10:06:00,
2013-02-09 02:11:00,26.3,-99.9,29.89,West,265,2.0,5.0,-999,0.00,,---,0.00,VWS V14.01,2013-02-09 10:11:00,
2013-02-09 02:16:00,26.0,-99.9,29.89,WSW,241,1.0,5.0,-999,0.00,,---,0.00,VWS V14.01,2013-02-09 10:16:00,
2013-02-09 02:21:00,26.6,-99.9,29.89,WSW,241,0.0,5.0,-999,0.00,,---,0.00,VWS V14.01,2013-02-09 10:21:00,
2013-02-09 02:26:00,28.2,-99.9,29.89,NNE,20,1.0,5.0,-999,0.00,,---,0.00,VWS V14.01,2013-02-09 10:26:00,
2013-02-09 02:30:00,25.7,-99.9,29.89,North,0,0.0,4.0,-999,0.00,,---,0.00,VWS V14.01,2013-02-09 10:30:00,
2013-02-09 02:31:00,30.2,-99.9,29.89,WNW,295,5.0,8.0,-999,0.00,,---,0.00,VWS V14.01,2013-02-09 10:31:00,
2013-02-09 02:36:00,30.7,-99.9,29.89,WNW,286,0.0,5.0,-999,0.00,,---,0.00,VWS V14.01,2013-02-09 10:36:00,
2013-02-09 02:41:00,28.1,-99.9,29.89,ESE,121,2.0,5.0,-999,0.00,,---,0.00,VWS V14.01,2013-02-09 10:41:00,
2013-02-09 02:46:00,27.4,-99.9,29.89,ESE,121,0.0,5.0,-999,0.00,,---,0.00,VWS V14.01,2013-02-09 10:46:00,
2013-02-09 02:51:00,26.9,-99.9,29.89,North,0,0.0,5.0,-999,0.00,,---,0.00,VWS V14.01,2013-02-09 10:51:00,
2013-02-09 02:56:00,27.1,-99.9,29.89,North,0,0.0,5.0,-999,0.00,,---,0.00,VWS V14.01,2013-02-09 10:56:00,
2013-02-09 03:00:00,25.3,-99.9,29.89,NW,325,0.0,4.0,-999,0.00,,---,0.00,VWS V14.01,2013-02-09 11:00:00,
2013-02-09 03:01:00,27.3,-99.9,29.89,North,0,0.0,5.0,-999,0.00,,---,0.00,VWS V14.01,2013-02-09 11:01:00,
2013-02-09 03:06:00,26.5,-99.9,29.89,North,0,0.0,0.0,-999,0.00,,---,0.00,VWS V14.01,2013-02-09 11:06:00,
2013-02-09 03:11:00,26.2,-99.9,29.89,North,0,0.0,3.0,-999,0.00,,---,0.00,VWS V14.01,2013-02-09 11:11:00,
2013-02-09 03:16:00,25.6,-99.9,29.89,North,0,0.0,3.0,-999,0.00,,---,0.00,VWS V14.01,2013-02-09 11:16:00,
2013-02-09 03:21:00,25.5,-99.9,29.89,North,0,0.0,3.0,-999,0.00,,---,0.00,VWS V14.01,2013-02-09 11:21:00,
2013-02-09 03:26:00,25.6,-99.9,29.89,North,0,0.0,3.0,-999,0.00,,---,0.00,VWS V14.01,2013-02-09 11:26:00,
2013-02-09 03:30:00,28.8,-99.9,29.89,NNW,332,3.0,8.0,-999,0.00,,---,0.00,VWS V14.01,2013-02-09 11:30:00,
2013-02-09 03:31:00,25.7,-99.9,29.89,North,0,0.0,4.0,-999,0.00,,---,0.00,VWS V14.01,2013-02-09 11:31:00,
2013-02-09 03:36:00,25.9,-99.9,29.89,North,0,0.0,2.0,-999,0.00,,---,0.00,VWS V14.01,2013-02-09 11:36:00,
2013-02-09 03:41:00,25.2,-99.9,29.89,North,0,0.0,2.0,-999,0.00,,---,0.00,VWS V14.01,2013-02-09 11:41:00,
2013-02-09 03:46:00,25.0,-99.9,29.89,North,0,0.0,2.0,-999,0.00,,---,0.00,VWS V14.01,2013-02-09 11:46:00,
2013-02-09 03:51:00,25.1,-99.9,29.89,North,0,0.0,2.0,-999,0.00,,---,0.00,VWS V14.01,2013-02-09 11:51:00,
2013-02-09 03:56:00,25.7,-99.9,29.89,North,0,3.0,3.0,-999,0.00,,---,0.00,VWS V14.01,2013-02-09 11:56:00,
2013-02-09 04:00:00,26.5,-99.9,29.90,North,0,0.0,5.0,-999,0.00,,---,0.00,VWS V14.01,2013-02-09 12:00:00,
2013-02-09 04:01:00,25.2,-99.9,29.89,NW,325,0.0,0.0,-999,0.00,,---,0.00,VWS V14.01,2013-02-09 12:01:00,
2013-02-09 04:06:00,24.6,-99.9,29.90,NW,325,0.0,0.0,-999,0.00,,---,0.00,VWS V14.01,2013-02-09 12:06:00,
2013-02-09 04:11:00,24.8,-99.9,29.89,NNW,348,2.0,4.0,-999,0.00,,---,0.00,VWS V14.01,2013-02-09 12:11:00,
2013-02-09 04:16:00,25.0,-99.9,29.89,NNW,348,2.0,4.0,-999,0.00,,---,0.00,VWS V14.01,2013-02-09 12:16:00,
2013-02-09 04:21:00,27.4,-99.9,29.89,NNW,341,2.0,5.0,-999,0.00,,---,0.00,VWS V14.01,2013-02-09 12:21:00,
2013-02-09 04:27:00,29.5,-99.9,29.89,NNW,348,4.0,8.0,-999,0.00,,---,0.00,VWS V14.01,2013-02-09 12:27:00,
2013-02-09 04:30:00,24.3,-99.9,29.90,North,0,3.0,4.0,-999,0.00,,---,0.00,VWS V14.01,2013-02-09 12:30:00,
2013-02-09 04:32:00,28.7,-99.9,29.89,NW,311,2.0,4.0,-999,0.00,,---,0.00,VWS V14.01,2013-02-09 12:32:00,
2013-02-09 04:37:00,28.2,-99.9,29.89,NW,314,3.0,5.0,-999,0.00,,---,0.00,VWS V14.01,2013-02-09 12:37:00,
2013-02-09 04:42:00,26.9,-99.9,29.89,NW,318,0.0,5.0,-999,0.00,,---,0.00,VWS V14.01,2013-02-09 12:42:00,
2013-02-09 04:47:00,24.8,-99.9,29.89,NW,318,0.0,5.0,-999,0.00,,---,0.00,VWS V14.01,2013-02-09 12:47:00,
2013-02-09 04:52:00,25.3,-99.9,29.90,SSE,168,0.0,5.0,-999,0.00,,---,0.00,VWS V14.01,2013-02-09 12:52:00,
2013-02-09 04:57:00,27.4,-99.9,29.89,NW,315,1.0,5.0,-999,0.00,,---,0.00,VWS V14.01,2013-02-09 12:57:00,
2013-02-09 05:00:00,24.5,-99.9,29.90,NW,323,0.0,7.0,-999,0.00,,---,0.00,VWS V14.01,2013-02-09 13:00:00,
2013-02-09 05:02:00,26.4,-99.9,29.90,North,0,0.0,0.0,-999,0.00,,---,0.00,VWS V14.01,2013-02-09 13:02:00,
2013-02-09 05:07:00,25.8,-99.9,29.89,North,0,0.0,3.0,-999,0.00,,---,0.00,VWS V14.01,2013-02-09 13:07:00,
2013-02-09 05:12:00,24.9,-99.9,29.90,North,0,0.0,3.0,-999,0.00,,---,0.00,VWS V14.01,2013-02-09 13:12:00,
2013-02-09 05:17:00,24.8,-99.9,29.90,North,0,0.0,3.0,-999,0.00,,---,0.00,VWS V14.01,2013-02-09 13:17:00,
2013-02-09 05:22:00,24.8,-99.9,29.90,North,0,0.0,3.0,-999,0.00,,---,0.00,VWS V14.01,2013-02-09 13:22:00,
2013-02-09 05:27:00,24.0,-99.9,29.90,North,0,0.0,3.0,-999,0.00,,---,0.00,VWS V14.01,2013-02-09 13:27:00,
2013-02-09 05:30:00,27.0,-99.9,29.91,North,357,2.0,6.0,-999,0.00,,---,0.00,VWS V14.01,2013-02-09 13:30:00,
2013-02-09 05:32:00,24.2,-99.9,29.90,North,0,3.0,4.0,-999,0.00,,---,0.00,VWS V14.01,2013-02-09 13:32:00,
2013-02-09 05:37:00,23.5,-99.9,29.90,WNW,300,3.0,4.0,-999,0.00,,---,0.00,VWS V14.01,2013-02-09 13:37:00,
2013-02-09 05:42:00,23.7,-99.9,29.90,WNW,300,0.0,4.0,-999,0.00,,---,0.00,VWS V14.01,2013-02-09 13:42:00,
2013-02-09 05:47:00,23.8,-99.9,29.90,WNW,300,0.0,4.0,-999,0.00,,---,0.00,VWS V14.01,2013-02-09 13:47:00,
2013-02-09 05:52:00,23.8,-99.9,29.90,WNW,300,0.0,4.0,-999,0.00,,---,0.00,VWS V14.01,2013-02-09 13:52:00,
2013-02-09 05:57:00,26.3,-99.9,29.90,NW,311,5.0,7.0,-999,0.00,,---,0.00,VWS V14.01,2013-02-09 13:57:00,
2013-02-09 06:00:00,28.1,-99.9,29.92,North,11,0.0,9.0,-999,0.00,,---,0.00,VWS V14.01,2013-02-09 14:00:00,
2013-02-09 06:02:00,24.3,-99.9,29.90,NW,324,0.0,0.0,-999,0.00,,---,0.00,VWS V14.01,2013-02-09 14:02:00,
2013-02-09 06:07:00,23.1,-99.9,29.91,NW,323,0.0,0.0,-999,0.00,,---,0.00,VWS V14.01,2013-02-09 14:07:00,
2013-02-09 06:12:00,22.7,-99.9,29.91,NW,323,0.0,0.0,-999,0.00,,---,0.00,VWS V14.01,2013-02-09 14:12:00,
2013-02-09 06:17:00,23.1,-99.9,29.91,NW,323,0.0,0.0,-999,0.00,,---,0.00,VWS V14.01,2013-02-09 14:17:00,
2013-02-09 06:22:00,23.4,-99.9,29.91,NW,323,3.0,3.0,-999,0.00,,---,0.00,VWS V14.01,2013-02-09 14:22:00,
2013-02-09 06:27:00,25.1,-99.9,29.91,NW,324,5.0,6.0,-999,0.00,,---,0.00,VWS V14.01,2013-02-09 14:27:00,
2013-02-09 06:30:00,27.1,-99.9,29.92,NW,308,0.0,8.0,-999,0.00,,---,0.00,VWS V14.01,2013-02-09 14:30:00,
2013-02-09 06:32:00,27.2,-99.9,29.91,North,0,2.0,5.0,-999,0.00,,---,0.00,VWS V14.01,2013-02-09 14:32:00,
2013-02-09 06:37:00,27.9,-99.9,29.91,NE,36,4.0,7.0,-999,0.00,,---,0.00,VWS V14.01,2013-02-09 14:37:00,
2013-02-09 06:42:00,29.0,-99.9,29.91,NNW,338,6.0,7.0,-999,0.00,,---,0.00,VWS V14.01,2013-02-09 14:42:00,
2013-02-09 06:47:00,28.8,-99.9,29.91,NW,326,5.0,8.0,-999,0.00,,---,0.00,VWS V14.01,2013-02-09 14:47:00,
2013-02-09 06:52:00,28.4,-99.9,29.92,North,349,7.0,9.0,-999,0.00,,---,0.00,VWS V14.01,2013-02-09 14:52:00,
2013-02-09 06:57:00,28.9,-99.9,29.92,North,355,4.0,9.0,-999,0.00,,---,0.00,VWS V14.01,2013-02-09 14:57:00,
2013-02-09 07:00:00,24.8,-99.9,29.93,NW,326,0.0,3.0,-999,0.00,,---,0.00,VWS V14.01,2013-02-09 15:00:00,
2013-02-09 07:02:00,26.9,-99.9,29.91,ENE,64,2.0,3.0,-999,0.00,,---,0.00,VWS V14.01,2013-02-09 15:02:00,
2013-02-09 07:07:00,26.9,-99.9,29.91,NW,311,8.0,8.0,-999,0.00,,---,0.00,VWS V14.01,2013-02-09 15:07:00,
2013-02-09 07:12:00,28.0,-99.9,29.92,North,358,1.0,8.0,-999,0.00,,---,0.00,VWS V14.01,2013-02-09 15:12:00,
2013-02-09 07:17:00,28.0,-99.9,29.92,NW,315,3.0,8.0,-999,0.00,,---,0.00,VWS V14.01,2013-02-09 15:17:00,
2013-02-09 07:22:00,28.3,-99.9,29.92,NNW,337,3.0,8.0,-999,0.00,,---,0.00,VWS V14.01,2013-02-09 15:22:00,
2013-02-09 07:27:00,28.4,-99.9,29.92,NW,308,0.0,8.0,-999,0.00,,---,0.00,VWS V14.01,2013-02-09 15:27:00,
2013-02-09 07:30:00,33.2,-99.9,29.94,NW,326,0.0,2.0,-999,0.00,,---,0.00,VWS V14.01,2013-02-09 15:30:00,
2013-02-09 07:32:00,26.7,-99.9,29.92,NW,308,0.0,3.0,-999,0.00,,---,0.00,VWS V14.01,2013-02-09 15:32:00,
2013-02-09 07:37:00,25.3,-99.9,29.92,NW,308,2.0,3.0,-999,0.00,,---,0.00,VWS V14.01,2013-02-09 15:37:00,
2013-02-09 07:42:00,25.2,-99.9,29.92,NW,308,0.0,3.0,-999,0.00,,---,0.00,VWS V14.01,2013-02-09 15:42:00,
2013-02-09 07:47:00,24.8,-99.9,29.92,NW,308,0.0,3.0,-999,0.00,,---,0.00,VWS V14.01,2013-02-09 15:47:00,
2013-02-09 07:52:00,25.0,-99.9,29.92,NW,308,0.0,3.0,-999,0.00,,---,0.00,VWS V14.01,2013-02-09 15:52:00,
2013-02-09 07:57:00,24.5,-99.9,29.93,NW,308,0.0,3.0,-999,0.00,,---,0.00,VWS V14.01,2013-02-09 15:57:00,
2013-02-09 08:00:00,41.9,-99.9,29.94,NNE,26,0.0,3.0,-999,0.00,,---,0.00,VWS V14.01,2013-02-09 16:00:00,
2013-02-09 08:02:00,25.1,-99.9,29.94,NW,326,0.0,0.0,-999,0.00,,---,0.00,VWS V14.01,2013-02-09 16:02:00,
2013-02-09 08:07:00,25.4,-99.9,29.93,NW,326,0.0,0.0,-999,0.00,,---,0.00,VWS V14.01,2013-02-09 16:07:00,
2013-02-09 08:12:00,25.3,-99.9,29.94,NW,326,0.0,0.0,-999,0.00,,---,0.00,VWS V14.01,2013-02-09 16:12:00,
2013-02-09 08:17:00,26.6,-99.9,29.94,NW,326,0.0,0.0,-999,0.00,,---,0.00,VWS V14.01,2013-02-09 16:17:00,
2013-02-09 08:22:00,26.9,-99.9,29.94,NW,326,0.0,0.0,-999,0.00,,---,0.00,VWS V14.01,2013-02-09 16:22:00,
2013-02-09 08:27:00,30.5,-99.9,29.94,NW,326,0.0,0.0,-999,0.00,,---,0.00,VWS V14.01,2013-02-09 16:27:00,
2013-02-09 08:30:00,48.6,-99.9,29.94,NNE,33,0.0,2.0,-999,0.00,,---,0.00,VWS V14.01,2013-02-09 16:30:00,
2013-02-09 08:32:00,32.7,-99.9,29.94,NW,326,0.0,0.0,-999,0.00,,---,0.00,VWS V14.01,2013-02-09 16:32:00,
2013-02-09 08:37:00,34.8,-99.9,29.94,NW,326,0.0,1.0,-999,0.00,,---,0.00,VWS V14.01,2013-02-09 16:37:00,
2013-02-09 08:42:00,36.5,-99.9,29.94,NW,326,0.0,1.0,-999,0.00,,---,0.00,VWS V14.01,2013-02-09 16:42:00,
2013-02-09 08:47:00,38.4,-99.9,29.94,NW,326,0.0,1.0,-999,0.00,,---,0.00,VWS V14.01,2013-02-09 16:47:00,
2013-02-09 08:53:00,40.2,-99.9,29.95,NW,326,0.0,1.0,-999,0.00,,---,0.00,VWS V14.01,2013-02-09 16:53:00,
2013-02-09 08:57:00,40.6,-99.9,29.95,NW,326,0.0,3.0,-999,0.00,,---,0.00,VWS V14.01,2013-02-09 16:57:00,
2013-02-09 09:00:00,54.9,-99.9,29.95,South,170,0.0,7.0,-999,0.00,,---,0.00,VWS V14.01,2013-02-09 17:00:00,
2013-02-09 09:03:00,41.7,-99.9,29.94,NNE,33,0.0,0.0,-999,0.00,,---,0.00,VWS V14.01,2013-02-09 17:03:00,
2013-02-09 09:08:00,44.0,-99.9,29.94,NNE,33,0.0,2.0,-999,0.00,,---,0.00,VWS V14.01,2013-02-09 17:08:00,
2013-02-09 09:13:00,47.4,-99.9,29.94,NNE,33,0.0,2.0,-999,0.00,,---,0.00,VWS V14.01,2013-02-09 17:13:00,
2013-02-09 09:18:00,46.0,-99.9,29.94,NNE,33,0.0,2.0,-999,0.00,,---,0.00,VWS V14.01,2013-02-09 17:18:00,
2013-02-09 09:23:00,46.4,-99.9,29.94,NNE,33,0.0,2.0,-999,0.00,,---,0.00,VWS V14.01,2013-02-09 17:23:00,
2013-02-09 09:28:00,49.6,-99.9,29.94,NNE,33,0.0,2.0,-999,0.00,,---,0.00,VWS V14.01,2013-02-09 17:28:00,
2013-02-09 09:30:00,53.4,-99.9,29.95,SE,131,4.0,8.0,-999,0.00,,---,0.00,VWS V14.01,2013-02-09 17:30:00,
2013-02-09 09:33:00,49.0,-99.9,29.94,NNE,33,0.0,0.0,-999,0.00,,---,0.00,VWS V14.01,2013-02-09 17:33:00,
2013-02-09 09:38:00,50.9,-99.9,29.94,NNE,33,0.0,0.0,-999,0.00,,---,0.00,VWS V14.01,2013-02-09 17:38:00,
2013-02-09 09:43:00,51.4,-99.9,29.94,NNE,33,0.0,1.0,-999,0.00,,---,0.00,VWS V14.01,2013-02-09 17:43:00,
2013-02-09 09:48:00,54.6,-99.9,29.94,SSE,154,4.0,5.0,-999,0.00,,---,0.00,VWS V14.01,2013-02-09 17:48:00,
2013-02-09 09:53:00,53.2,-99.9,29.95,SE,139,1.0,5.0,-999,0.00,,---,0.00,VWS V14.01,2013-02-09 17:53:00,
2013-02-09 09:58:00,56.4,-99.9,29.95,South,170,3.0,7.0,-999,0.00,,---,0.00,VWS V14.01,2013-02-09 17:58:00,
2013-02-09 10:00:00,52.5,-99.9,29.96,ESE,117,2.0,12.0,-999,0.00,,---,0.00,VWS V14.01,2013-02-09 18:00:00,
2013-02-09 10:03:00,56.7,-99.9,29.95,South,174,5.0,5.0,-999,0.00,,---,0.00,VWS V14.01,2013-02-09 18:03:00,
2013-02-09 10:08:00,56.2,-99.9,29.95,SSW,203,0.0,6.0,-999,0.00,,---,0.00,VWS V14.01,2013-02-09 18:08:00,
2013-02-09 10:13:00,56.2,-99.9,29.95,South,187,5.0,6.0,-999,0.00,,---,0.00,VWS V14.01,2013-02-09 18:13:00,
2013-02-09 10:18:00,56.9,-99.9,29.95,SSE,160,3.0,7.0,-999,0.00,,---,0.00,VWS V14.01,2013-02-09 18:18:00,
2013-02-09 10:23:00,54.7,-99.9,29.96,South,176,4.0,8.0,-999,0.00,,---,0.00,VWS V14.01,2013-02-09 18:23:00,
2013-02-09 10:28:00,54.3,-99.9,29.95,ESE,118,4.0,8.0,-999,0.00,,---,0.00,VWS V14.01,2013-02-09 18:28:00,
2013-02-09 10:30:00,56.2,-99.9,29.97,WNW,282,0.0,10.0,-999,0.00,,---,0.00,VWS V14.01,2013-02-09 18:30:00,
2013-02-09 10:33:00,55.2,-99.9,29.96,SE,130,1.0,4.0,-999,0.00,,---,0.00,VWS V14.01,2013-02-09 18:33:00,
2013-02-09 10:38:00,55.1,-99.9,29.96,SSE,166,1.0,6.0,-999,0.00,,---,0.00,VWS V14.01,2013-02-09 18:38:00,
2013-02-09 10:43:00,53.2,-99.9,29.96,ESE,114,3.0,7.0,-999,0.00,,---,0.00,VWS V14.01,2013-02-09 18:43:00,
2013-02-09 10:48:00,53.8,-99.9,29.96,SE,126,4.0,9.0,-999,0.00,,---,0.00,VWS V14.01,2013-02-09 18:48:00,
2013-02-09 10:53:00,56.1,-99.9,29.96,SW,214,8.0,12.0,-999,0.00,,---,0.00,VWS V14.01,2013-02-09 18:53:00,
2013-02-09 10:58:00,54.3,-99.9,29.97,SSE,153,3.0,12.0,-999,0.00,,---,0.00,VWS V14.01,2013-02-09 18:58:00,
2013-02-09 11:00:00,52.8,-99.9,29.96,East,98,5.0,10.0,-999,0.00,,---,0.00,VWS V14.01,2013-02-09 19:00:00,
2013-02-09 11:03:00,52.6,-99.9,29.97,SE,129,3.0,4.0,-999,0.00,,---,0.00,VWS V14.01,2013-02-09 19:03:00,
2013-02-09 11:08:00,56.7,-99.9,29.97,ENE,72,2.0,10.0,-999,0.00,,---,0.00,VWS V14.01,2013-02-09 19:08:00,
2013-02-09 11:13:00,57.4,-99.9,29.96,WSW,258,3.0,10.0,-999,0.00,,---,0.00,VWS V14.01,2013-02-09 19:13:00,
2013-02-09 11:18:00,54.7,-99.9,29.96,SW,221,1.0,10.0,-999,0.00,,---,0.00,VWS V14.01,2013-02-09 19:18:00,
2013-02-09 11:23:00,56.2,-99.9,29.96,WNW,293,0.0,10.0,-999,0.00,,---,0.00,VWS V14.01,2013-02-09 19:23:00,
2013-02-09 11:28:00,57.2,-99.9,29.96,West,262,1.0,10.0,-999,0.00,,---,0.00,VWS V14.01,2013-02-09 19:28:00,
2013-02-09 11:33:00,56.3,-99.9,29.96,SW,227,4.0,4.0,-999,0.00,,---,0.00,VWS V14.01,2013-02-09 19:33:00,
2013-02-09 11:38:00,52.8,-99.9,29.96,ESE,118,3.0,7.0,-999,0.00,,---,0.00,VWS V14.01,2013-02-09 19:38:00,
2013-02-09 11:43:00,55.6,-99.9,29.97,South,178,1.0,10.0,-999,0.00,,---,0.00,VWS V14.01,2013-02-09 19:43:00,
2013-02-09 11:48:00,55.5,-99.9,29.96,SW,232,3.0,10.0,-999,0.00,,---,0.00,VWS V14.01,2013-02-09 19:48:00,
2013-02-09 11:53:00,56.0,-99.9,29.97,WSW,243,1.0,10.0,-999,0.00,,---,0.00,VWS V14.01,2013-02-09 19:53:00,
2013-02-09 11:58:00,53.7,-99.9,29.96,SSW,194,2.0,10.0,-999,0.00,,---,0.00,VWS V14.01,2013-02-09 19:58:00,
2013-02-09 12:00:00,54.5,-99.9,29.95,South,171,2.0,9.0,-999,0.00,,---,0.00,VWS V14.01,2013-02-09 20:00:00,
2013-02-09 12:03:00,52.0,-99.9,29.96,East,93,2.0,5.0,-999,0.00,,---,0.00,VWS V14.01,2013-02-09 20:03:00,
2013-02-09 12:08:00,56.3,-99.9,29.95,WSW,247,0.0,6.0,-999,0.00,,---,0.00,VWS V14.01,2013-02-09 20:08:00,
2013-02-09 12:13:00,57.3,-99.9,29.96,WSW,252,0.0,7.0,-999,0.00,,---,0.00,VWS V14.01,2013-02-09 20:13:00,
2013-02-09 12:18:00,54.3,-99.9,29.95,South,181,5.0,8.0,-999,0.00,,---,0.00,VWS V14.01,2013-02-09 20:18:00,
2013-02-09 12:23:00,55.7,-99.9,29.95,East,84,0.0,8.0,-999,0.00,,---,0.00,VWS V14.01,2013-02-09 20:23:00,
2013-02-09 12:29:00,56.1,-99.9,29.95,South,177,4.0,10.0,-999,0.00,,---,0.00,VWS V14.01,2013-02-09 20:29:00,
2013-02-09 12:30:00,52.4,-99.9,29.95,ESE,106,3.0,12.0,-999,0.00,,---,0.00,VWS V14.01,2013-02-09 20:30:00,
2013-02-09 12:34:00,53.7,-99.9,29.95,NW,311,4.0,7.0,-999,0.00,,---,0.00,VWS V14.01,2013-02-09 20:34:00,
2013-02-09 12:39:00,55.5,-99.9,29.95,West,278,7.0,9.0,-999,0.00,,---,0.00,VWS V14.01,2013-02-09 20:39:00,
2013-02-09 12:44:00,55.0,-99.9,29.95,NE,35,2.0,9.0,-999,0.00,,---,0.00,VWS V14.01,2013-02-09 20:44:00,
2013-02-09 12:49:00,56.0,-99.9,29.95,WNW,282,6.0,9.0,-999,0.00,,---,0.00,VWS V14.01,2013-02-09 20:49:00,
2013-02-09 12:54:00,54.5,-99.9,29.95,SW,227,0.0,9.0,-999,0.00,,---,0.00,VWS V14.01,2013-02-09 20:54:00,
2013-02-09 12:59:00,54.5,-99.9,29.95,SSE,167,7.0,9.0,-999,0.00,,---,0.00,VWS V14.01,2013-02-09 20:59:00,
2013-02-09 13:00:00,52.4,-99.9,29.95,SSE,153,0.0,10.0,-999,0.00,,---,0.00,VWS V14.01,2013-02-09 21:00:00,
2013-02-09 13:04:00,53.8,-99.9,29.95,SW,219,4.0,6.0,-999,0.00,,---,0.00,VWS V14.01,2013-02-09 21:04:00,
2013-02-09 13:09:00,54.2,-99.9,29.95,WSW,243,3.0,6.0,-999,0.00,,---,0.00,VWS V14.01,2013-02-09 21:09:00,
2013-02-09 13:14:00,54.7,-99.9,29.95,SSW,196,7.0,8.0,-999,0.00,,---,0.00,VWS V14.01,2013-02-09 21:14:00,
2013-02-09 13:19:00,52.2,-99.9,29.95,South,170,9.0,12.0,-999,0.00,,---,0.00,VWS V14.01,2013-02-09 21:19:00,
2013-02-09 13:24:00,54.0,-99.9,29.95,SSW,193,1.0,12.0,-999,0.00,,---,0.00,VWS V14.01,2013-02-09 21:24:00,
2013-02-09 13:29:00,52.2,-99.9,29.95,ENE,64,0.0,12.0,-999,0.00,,---,0.00,VWS V14.01,2013-02-09 21:29:00,
2013-02-09 13:30:00,51.1,-99.9,29.96,SE,126,1.0,11.0,-999,0.00,,---,0.00,VWS V14.01,2013-02-09 21:30:00,
2013-02-09 13:34:00,54.2,-99.9,29.95,WSW,250,3.0,5.0,-999,0.00,,---,0.00,VWS V14.01,2013-02-09 21:34:00,
2013-02-09 13:39:00,51.4,-99.9,29.95,North,2,0.0,8.0,-999,0.00,,---,0.00,VWS V14.01,2013-02-09 21:39:00,
2013-02-09 13:44:00,52.1,-99.9,29.95,NE,37,3.0,8.0,-999,0.00,,---,0.00,VWS V14.01,2013-02-09 21:44:00,
2013-02-09 13:49:00,51.7,-99.9,29.95,SSW,212,3.0,8.0,-999,0.00,,---,0.00,VWS V14.01,2013-02-09 21:49:00,
2013-02-09 13:54:00,51.5,-99.9,29.95,SSE,155,1.0,8.0,-999,0.00,,---,0.00,VWS V14.01,2013-02-09 21:54:00,
2013-02-09 13:59:00,52.8,-99.9,29.95,SSE,161,1.0,8.0,-999,0.00,,---,0.00,VWS V14.01,2013-02-09 21:59:00,
2013-02-09 14:00:00,52.0,-99.9,29.95,SSW,205,2.0,8.0,-999,0.00,,---,0.00,VWS V14.01,2013-02-09 22:00:00,
2013-02-09 14:04:00,51.9,-99.9,29.95,SSE,159,2.0,6.0,-999,0.00,,---,0.00,VWS V14.01,2013-02-09 22:04:00,
2013-02-09 14:09:00,52.2,-99.9,29.96,North,353,0.0,8.0,-999,0.00,,---,0.00,VWS V14.01,2013-02-09 22:09:00,
2013-02-09 14:14:00,51.5,-99.9,29.96,NW,320,2.0,8.0,-999,0.00,,---,0.00,VWS V14.01,2013-02-09 22:14:00,
2013-02-09 14:19:00,51.8,-99.9,29.95,WSW,247,3.0,8.0,-999,0.00,,---,0.00,VWS V14.01,2013-02-09 22:19:00,
2013-02-09 14:24:00,51.7,-99.9,29.96,West,264,6.0,10.0,-999,0.00,,---,0.00,VWS V14.01,2013-02-09 22:24:00,
2013-02-09 14:29:00,51.5,-99.9,29.95,SW,219,6.0,11.0,-999,0.00,,---,0.00,VWS V14.01,2013-02-09 22:29:00,
2013-02-09 14:30:00,51.4,-99.9,29.96,NNW,338,0.0,10.0,-999,0.00,,---,0.00,VWS V14.01,2013-02-09 22:30:00,
2013-02-09 14:34:00,51.7,-99.9,29.95,WSW,248,3.0,7.0,-999,0.00,,---,0.00,VWS V14.01,2013-02-09 22:34:00,
2013-02-09 14:39:00,51.2,-99.9,29.95,WSW,254,0.0,7.0,-999,0.00,,---,0.00,VWS V14.01,2013-02-09 22:39:00,
2013-02-09 14:44:00,52.2,-99.9,29.95,NE,50,3.0,7.0,-999,0.00,,---,0.00,VWS V14.01,2013-02-09 22:44:00,
2013-02-09 14:49:00,52.2,-99.9,29.95,South,189,0.0,7.0,-999,0.00,,---,0.00,VWS V14.01,2013-02-09 22:49:00,
2013-02-09 14:54:00,51.7,-99.9,29.95,SSW,193,3.0,7.0,-999,0.00,,---,0.00,VWS V14.01,2013-02-09 22:54:00,
2013-02-09 14:59:00,51.7,-99.9,29.95,SW,227,1.0,8.0,-999,0.00,,---,0.00,VWS V14.01,2013-02-09 22:59:00,
2013-02-09 15:00:00,50.8,-99.9,29.96,SSW,204,4.0,8.0,-999,0.00,,---,0.00,VWS V14.01,2013-02-09 23:00:00,
2013-02-09 15:04:00,51.5,-99.9,29.95,ESE,111,0.0,2.0,-999,0.00,,---,0.00,VWS V14.01,2013-02-09 23:04:00,
2013-02-09 15:09:00,52.4,-99.9,29.95,WSW,253,3.0,10.0,-999,0.00,,---,0.00,VWS V14.01,2013-02-09 23:09:00,
2013-02-09 15:14:00,52.1,-99.9,29.95,WSW,256,0.0,10.0,-999,0.00,,---,0.00,VWS V14.01,2013-02-09 23:14:00,
2013-02-09 15:19:00,51.3,-99.9,29.95,WSW,248,3.0,10.0,-999,0.00,,---,0.00,VWS V14.01,2013-02-09 23:19:00,
2013-02-09 15:24:00,51.4,-99.9,29.95,WSW,253,1.0,10.0,-999,0.00,,---,0.00,VWS V14.01,2013-02-09 23:24:00,
2013-02-09 15:29:00,51.4,-99.9,29.95,SSW,209,3.0,10.0,-999,0.00,,---,0.00,VWS V14.01,2013-02-09 23:29:00,
2013-02-09 15:34:00,51.5,-99.9,29.96,SW,220,1.0,6.0,-999,0.00,,---,0.00,VWS V14.01,2013-02-09 23:34:00,
2013-02-09 15:39:00,51.2,-99.9,29.95,SW,230,0.0,6.0,-999,0.00,,---,0.00,VWS V14.01,2013-02-09 23:39:00,
2013-02-09 15:44:00,51.5,-99.9,29.96,SW,230,0.0,6.0,-999,0.00,,---,0.00,VWS V14.01,2013-02-09 23:44:00,
2013-02-09 15:49:00,51.0,-99.9,29.96,SSW,206,0.0,7.0,-999,0.00,,---,0.00,VWS V14.01,2013-02-09 23:49:00,
2013-02-09 15:54:00,50.9,-99.9,29.97,North,353,0.0,8.0,-999,0.00,,---,0.00,VWS V14.01,2013-02-09 23:54:00,
2013-02-09 15:59:00,50.8,-99.9,29.96,East,98,0.0,8.0,-999,0.00,,---,0.00,VWS V14.01,2013-02-09 23:59:00,
2013-02-09 16:00:00,48.4,-99.9,29.96,SE,135,0.0,4.0,-999,0.00,,---,0.00,VWS V14.01,2013-02-10 00:00:00,
2013-02-09 16:04:00,50.7,-99.9,29.96,West,276,2.0,7.0,-999,0.00,,---,0.00,VWS V14.01,2013-02-10 00:04:00,
2013-02-09 16:09:00,50.7,-99.9,29.96,SW,233,0.0,7.0,-999,0.00,,---,0.00,VWS V14.01,2013-02-10 00:09:00,
2013-02-09 16:14:00,50.4,-99.9,29.96,NNE,13,3.0,7.0,-999,0.00,,---,0.00,VWS V14.01,2013-02-10 00:14:00,
2013-02-09 16:19:00,50.3,-99.9,29.96,SSW,211,2.0,8.0,-999,0.00,,---,0.00,VWS V14.01,2013-02-10 00:19:00,
2013-02-09 16:24:00,50.1,-99.9,29.95,SSW,206,0.0,8.0,-999,0.00,,---,0.00,VWS V14.01,2013-02-10 00:24:00,
2013-02-09 16:29:00,50.1,-99.9,29.95,WSW,251,0.0,8.0,-999,0.00,,---,0.00,VWS V14.01,2013-02-10 00:29:00,
2013-02-09 16:30:00,43.6,-99.9,29.97,SE,135,0.0,1.0,-999,0.00,,---,0.00,VWS V14.01,2013-02-10 00:30:00,
2013-02-09 16:34:00,50.0,-99.9,29.95,WSW,254,0.0,3.0,-999,0.00,,---,0.00,VWS V14.01,2013-02-10 00:34:00,
2013-02-09 16:39:00,49.7,-99.9,29.95,South,181,2.0,3.0,-999,0.00,,---,0.00,VWS V14.01,2013-02-10 00:39:00,
2013-02-09 16:44:00,49.2,-99.9,29.96,South,185,0.0,3.0,-999,0.00,,---,0.00,VWS V14.01,2013-02-10 00:44:00,
2013-02-09 16:50:00,49.3,-99.9,29.96,SE,135,0.0,4.0,-999,0.00,,---,0.00,VWS V14.01,2013-02-10 00:50:00,
2013-02-09 16:55:00,48.8,-99.9,29.96,SE,135,0.0,4.0,-999,0.00,,---,0.00,VWS V14.01,2013-02-10 00:55:00,
2013-02-09 17:00:00,48.3,-99.9,29.96,SE,135,0.0,4.0,-999,0.00,,---,0.00,VWS V14.01,2013-02-10 01:00:00,
2013-02-09 17:05:00,48.5,-99.9,29.96,SE,135,0.0,0.0,-999,0.00,,---,0.00,VWS V14.01,2013-02-10 01:05:00,
2013-02-09 17:10:00,48.0,-99.9,29.96,SE,135,0.0,1.0,-999,0.00,,---,0.00,VWS V14.01,2013-02-10 01:10:00,
2013-02-09 17:15:00,47.4,-99.9,29.96,SE,135,0.0,1.0,-999,0.00,,---,0.00,VWS V14.01,2013-02-10 01:15:00,
2013-02-09 17:20:00,46.8,-99.9,29.96,SE,135,0.0,1.0,-999,0.00,,---,0.00,VWS V14.01,2013-02-10 01:20:00,
2013-02-09 17:25:00,45.5,-99.9,29.96,SE,135,0.0,1.0,-999,0.00,,---,0.00,VWS V14.01,2013-02-10 01:25:00,
2013-02-09 17:30:00,43.9,-99.9,29.96,SE,135,0.0,1.0,-999,0.00,,---,0.00,VWS V14.01,2013-02-10 01:30:00,
2013-02-09 17:35:00,43.3,-99.9,29.96,SE,135,0.0,0.0,-999,0.00,,---,0.00,VWS V14.01,2013-02-10 01:35:00,
2013-02-09 17:40:00,42.8,-99.9,29.97,SE,135,0.0,0.0,-999,0.00,,---,0.00,VWS V14.01,2013-02-10 01:40:00,
2013-02-09 17:45:00,42.1,-99.9,29.97,SE,135,0.0,0.0,-999,0.00,,---,0.00,VWS V14.01,2013-02-10 01:45:00,
2013-02-09 17:50:00,41.5,-99.9,29.97,SE,135,0.0,2.0,-999,0.00,,---,0.00,VWS V14.01,2013-02-10 01:50:00,
2013-02-09 17:55:00,41.0,-99.9,29.97,SE,135,2.0,3.0,-999,0.00,,---,0.00,VWS V14.01,2013-02-10 01:55:00,
2013-02-09 18:00:00,40.9,-99.9,29.98,WSW,239,0.0,3.0,-999,0.00,,---,0.00,VWS V14.01,2013-02-10 02:00:00,
2013-02-09 18:05:00,40.0,-99.9,29.97,WSW,240,0.0,0.0,-999,0.00,,---,0.00,VWS V14.01,2013-02-10 02:05:00,
2013-02-09 18:10:00,38.8,-99.9,29.97,WSW,240,0.0,0.0,-999,0.00,,---,0.00,VWS V14.01,2013-02-10 02:10:00,
2013-02-09 18:15:00,38.3,-99.9,29.98,WSW,239,0.0,0.0,-999,0.00,,---,0.00,VWS V14.01,2013-02-10 02:15:00,
2013-02-09 18:20:00,38.0,-99.9,29.98,WNW,286,1.0,3.0,-999,0.00,,---,0.00,VWS V14.01,2013-02-10 02:20:00,
2013-02-09 18:25:00,38.0,-99.9,29.98,WNW,286,0.0,3.0,-999,0.00,,---,0.00,VWS V14.01,2013-02-10 02:25:00,
2013-02-09 18:30:00,37.3,-99.9,29.98,WNW,286,0.0,3.0,-999,0.00,,---,0.00,VWS V14.01,2013-02-10 02:30:00,
2013-02-09 18:35:00,37.3,-99.9,29.99,WNW,286,0.0,2.0,-999,0.00,,---,0.00,VWS V14.01,2013-02-10 02:35:00,
2013-02-09 18:40:00,36.7,-99.9,29.99,WNW,286,0.0,2.0,-999,0.00,,---,0.00,VWS V14.01,2013-02-10 02:40:00,
2013-02-09 18:45:00,35.7,-99.9,29.99,WNW,286,0.0,2.0,-999,0.00,,---,0.00,VWS V14.01,2013-02-10 02:45:00,
2013-02-09 18:50:00,35.8,-99.9,29.99,WNW,286,0.0,2.0,-999,0.00,,---,0.00,VWS V14.01,2013-02-10 02:50:00,
2013-02-09 18:55:00,35.5,-99.9,29.99,WNW,286,0.0,2.0,-999,0.00,,---,0.00,VWS V14.01,2013-02-10 02:55:00,
2013-02-09 19:00:00,34.9,-99.9,29.98,WNW,286,0.0,2.0,-999,0.00,,---,0.00,VWS V14.01,2013-02-10 03:00:00,
2013-02-09 19:05:00,34.7,-99.9,29.99,WNW,286,0.0,0.0,-999,0.00,,---,0.00,VWS V14.01,2013-02-10 03:05:00,
2013-02-09 19:10:00,34.7,-99.9,30.00,WNW,286,0.0,0.0,-999,0.00,,---,0.00,VWS V14.01,2013-02-10 03:10:00,
2013-02-09 19:15:00,34.6,-99.9,30.00,WNW,286,2.0,3.0,-999,0.00,,---,0.00,VWS V14.01,2013-02-10 03:15:00,
2013-02-09 19:20:00,35.3,-99.9,30.00,NW,312,2.0,4.0,-999,0.00,,---,0.00,VWS V14.01,2013-02-10 03:20:00,
2013-02-09 19:25:00,35.3,-99.9,30.00,NW,312,0.0,4.0,-999,0.00,,---,0.00,VWS V14.01,2013-02-10 03:25:00,
2013-02-09 19:30:00,33.4,-99.9,30.00,NW,312,2.0,4.0,-999,0.00,,---,0.00,VWS V14.01,2013-02-10 03:30:00,
2013-02-09 19:35:00,34.5,-99.9,30.00,North,0,1.0,6.0,-999,0.00,,---,0.00,VWS V14.01,2013-02-10 03:35:00,
2013-02-09 19:40:00,33.3,-99.9,30.00,North,356,0.0,6.0,-999,0.00,,---,0.00,VWS V14.01,2013-02-10 03:40:00,
2013-02-09 19:45:00,32.7,-99.9,30.00,North,355,0.0,6.0,-999,0.00,,---,0.00,VWS V14.01,2013-02-10 03:45:00,
2013-02-09 19:50:00,32.6,-99.9,30.00,North,356,0.0,6.0,-999,0.00,,---,0.00,VWS V14.01,2013-02-10 03:50:00,
2013-02-09 19:55:00,33.4,-99.9,30.00,WNW,286,0.0,6.0,-999,0.00,,---,0.00,VWS V14.01,2013-02-10 03:55:00,
2013-02-09 20:00:00,32.8,-99.9,30.01,WNW,286,1.0,6.0,-999,0.00,,---,0.00,VWS V14.01,2013-02-10 04:00:00,
2013-02-09 20:05:00,32.3,-99.9,30.00,WNW,286,0.0,2.0,-999,0.00,,---,0.00,VWS V14.01,2013-02-10 04:05:00,
2013-02-09 20:10:00,31.9,-99.9,30.00,WNW,286,0.0,2.0,-999,0.00,,---,0.00,VWS V14.01,2013-02-10 04:10:00,
2013-02-09 20:15:00,31.9,-99.9,30.01,WNW,286,0.0,3.0,-999,0.00,,---,0.00,VWS V14.01,2013-02-10 04:15:00,
2013-02-09 20:20:00,31.4,-99.9,30.01,WNW,286,0.0,3.0,-999,0.00,,---,0.00,VWS V14.01,2013-02-10 04:20:00,
2013-02-09 20:25:00,31.7,-99.9,30.01,WNW,286,1.0,3.0,-999,0.00,,---,0.00,VWS V14.01,2013-02-10 04:25:00,
2013-02-09 20:30:00,32.3,-99.9,30.01,NNW,327,2.0,4.0,-999,0.00,,---,0.00,VWS V14.01,2013-02-10 04:30:00,
2013-02-09 20:36:00,31.0,-99.9,30.01,NNW,344,0.0,6.0,-999,0.00,,---,0.00,VWS V14.01,2013-02-10 04:36:00,
2013-02-09 20:41:00,31.8,-99.9,30.01,NW,323,1.0,6.0,-999,0.00,,---,0.00,VWS V14.01,2013-02-10 04:41:00,
2013-02-09 20:46:00,31.8,-99.9,30.01,NW,323,0.0,6.0,-999,0.00,,---,0.00,VWS V14.01,2013-02-10 04:46:00,
2013-02-09 20:51:00,31.2,-99.9,30.01,NW,323,4.0,6.0,-999,0.00,,---,0.00,VWS V14.01,2013-02-10 04:51:00,
2013-02-09 20:56:00,32.2,-99.9,30.01,NNW,327,2.0,6.0,-999,0.00,,---,0.00,VWS V14.01,2013-02-10 04:56:00,
2013-02-09 21:00:00,33.7,-99.9,30.01,North,349,4.0,7.0,-999,0.00,,---,0.00,VWS V14.01,2013-02-10 05:00:00,
2013-02-09 21:05:00,34.0,-99.9,30.01,NNW,341,2.0,6.0,-999,0.00,,---,0.00,VWS V14.01,2013-02-10 05:05:00,
2013-02-09 21:10:00,32.6,-99.9,30.01,NE,36,2.0,6.0,-999,0.00,,---,0.00,VWS V14.01,2013-02-10 05:10:00,
2013-02-09 21:15:00,35.7,-99.9,30.01,North,2,2.0,6.0,-999,0.00,,---,0.00,VWS V14.01,2013-02-10 05:15:00,
2013-02-09 21:20:00,34.8,-99.9,30.00,NW,316,5.0,6.0,-999,0.00,,---,0.00,VWS V14.01,2013-02-10 05:20:00,
2013-02-09 21:25:00,33.2,-99.9,30.00,NNW,338,3.0,7.0,-999,0.00,,---,0.00,VWS V14.01,2013-02-10 05:25:00,
2013-02-09 21:30:00,32.2,-99.9,30.00,NNW,346,4.0,7.0,-999,0.00,,---,0.00,VWS V14.01,2013-02-10 05:30:00,
2013-02-09 21:35:00,33.6,-99.9,30.00,NW,321,4.0,7.0,-999,0.00,,---,0.00,VWS V14.01,2013-02-10 05:35:00,
2013-02-09 21:40:00,33.2,-99.9,30.01,NNW,343,3.0,7.0,-999,0.00,,---,0.00,VWS V14.01,2013-02-10 05:40:00,
2013-02-09 21:45:00,32.4,-99.9,30.01,NE,47,3.0,7.0,-999,0.00,,---,0.00,VWS V14.01,2013-02-10 05:45:00,
2013-02-09 21:50:00,30.3,-99.9,30.01,SSE,150,3.0,7.0,-999,0.00,,---,0.00,VWS V14.01,2013-02-10 05:50:00,
2013-02-09 21:55:00,29.9,-99.9,30.02,ENE,63,1.0,7.0,-999,0.00,,---,0.00,VWS V14.01,2013-02-10 05:55:00,
2013-02-09 22:00:00,30.2,-99.9,30.02,NW,313,2.0,7.0,-999,0.00,,---,0.00,VWS V14.01,2013-02-10 06:00:00,
2013-02-09 22:05:00,30.6,-99.9,30.01,NW,313,1.0,3.0,-999,0.00,,---,0.00,VWS V14.01,2013-02-10 06:05:00,
2013-02-09 22:10:00,29.0,-99.9,30.02,NW,313,0.0,3.0,-999,0.00,,---,0.00,VWS V14.01,2013-02-10 06:10:00,
2013-02-09 22:15:00,29.0,-99.9,30.02,NW,313,0.0,3.0,-999,0.00,,---,0.00,VWS V14.01,2013-02-10 06:15:00,
2013-02-09 22:20:00,29.4,-99.9,30.02,NW,313,0.0,3.0,-999,0.00,,---,0.00,VWS V14.01,2013-02-10 06:20:00,
2013-02-09 22:25:00,29.9,-99.9,30.01,NW,313,2.0,3.0,-999,0.00,,---,0.00,VWS V14.01,2013-02-10 06:25:00,
2013-02-09 22:30:00,29.3,-99.9,30.02,NW,313,0.0,3.0,-999,0.00,,---,0.00,VWS V14.01,2013-02-10 06:30:00,
2013-02-09 22:35:00,29.2,-99.9,30.01,NW,313,0.0,0.0,-999,0.00,,---,0.00,VWS V14.01,2013-02-10 06:35:00,
2013-02-09 22:40:00,28.8,-99.9,30.02,NW,313,0.0,0.0,-999,0.00,,---,0.00,VWS V14.01,2013-02-10 06:40:00,
2013-02-09 22:45:00,28.7,-99.9,30.02,NW,313,0.0,0.0,-999,0.00,,---,0.00,VWS V14.01,2013-02-10 06:45:00,
2013-02-09 22:50:00,28.5,-99.9,30.03,NW,313,0.0,2.0,-999,0.00,,---,0.00,VWS V14.01,2013-02-10 06:50:00,
2013-02-09 22:55:00,28.6,-99.9,30.02,NW,313,0.0,2.0,-999,0.00,,---,0.00,VWS V14.01,2013-02-10 06:55:00,
2013-02-09 23:00:00,28.3,-99.9,30.02,NW,313,0.0,2.0,-999,0.00,,---,0.00,VWS V14.01,2013-02-10 07:00:00,
2013-02-09 23:05:00,27.8,-99.9,30.02,NW,313,0.0,0.0,-999,0.00,,---,0.00,VWS V14.01,2013-02-10 07:05:00,
2013-02-09 23:10:00,27.9,-99.9,30.02,NW,313,0.0,0.0,-999,0.00,,---,0.00,VWS V14.01,2013-02-10 07:10:00,
2013-02-09 23:15:00,28.0,-99.9,30.03,NW,313,0.0,0.0,-999,0.00,,---,0.00,VWS V14.01,2013-02-10 07:15:00,
2013-02-09 23:20:00,27.8,-99.9,30.03,NW,313,0.0,0.0,-999,0.00,,---,0.00,VWS V14.01,2013-02-10 07:20:00,
2013-02-09 23:25:00,27.4,-99.9,30.03,NW,313,0.0,0.0,-999,0.00,,---,0.00,VWS V14.01,2013-02-10 07:25:00,
2013-02-09 23:30:00,27.4,-99.9,30.02,NW,314,0.0,0.0,-999,0.00,,---,0.00,VWS V14.01,2013-02-10 07:30:00,
2013-02-09 23:35:00,27.7,-99.9,30.02,NW,313,0.0,0.0,-999,0.00,,---,0.00,VWS V14.01,2013-02-10 07:35:00,
2013-02-09 23:40:00,27.3,-99.9,30.03,NW,313,2.0,2.0,-999,0.00,,---,0.00,VWS V14.01,2013-02-10 07:40:00,
2013-02-09 23:45:00,27.6,-99.9,30.03,NW,314,4.0,5.0,-999,0.00,,---,0.00,VWS V14.01,2013-02-10 07:45:00,
2013-02-09 23:51:00,27.4,-99.9,30.03,NW,317,0.0,5.0,-999,0.00,,---,0.00,VWS V14.01,2013-02-10 07:51:00,
2013-02-09 23:56:00,26.9,-99.9,30.03,NW,316,0.0,5.0,-999,0.00,,---,0.00,VWS V14.01,2013-02-10 07:56:00,